timestamp,wind_dir_avg,wind_spd_avg,wind_spd_max_dir,wind_spd_gust,battery_voltage,lat,long
2020-12-29 00:04:01+00:00,150.0,2.72,152.0,3.17,12.57,47.59359,-54.27349
2020-12-29 00:14:01+00:00,158.0,2.66,158.0,3.21,12.57,47.59359,-54.27349
2020-12-29 00:24:01+00:00,153.0,2.72,152.0,2.94,12.57,47.59359,-54.27349
2020-12-29 00:34:01+00:00,165.0,2.78,166.0,3.26,12.57,47.59359,-54.27349
2020-12-29 00:44:01+00:00,142.0,2.14,145.0,2.6,12.57,47.59359,-54.27349
2020-12-29 00:54:01+00:00,146.0,2.43,141.0,2.99,12.57,47.59359,-54.27349
2020-12-29 01:04:01+00:00,147.0,2.45,139.0,2.85,12.57,47.59359,-54.27349
2020-12-29 01:14:01+00:00,147.0,2.3,140.0,2.93,12.49,47.59359,-54.27349
2020-12-29 01:24:01+00:00,152.0,3.58,156.0,3.88,12.49,47.59359,-54.27349
2020-12-29 01:34:01+00:00,150.0,2.61,146.0,3.34,12.49,47.59359,-54.27349
2020-12-29 01:44:01+00:00,148.0,2.53,147.0,2.97,12.49,47.59359,-54.27349
2020-12-29 01:54:01+00:00,143.0,2.44,146.0,3.07,12.49,47.59359,-54.27349
2020-12-29 02:04:01+00:00,156.0,2.01,150.0,2.55,12.49,47.59359,-54.27349
2020-12-29 02:14:01+00:00,163.0,2.35,165.0,2.66,12.49,47.59359,-54.27349
2020-12-29 02:24:01+00:00,166.0,2.7,179.0,3.19,12.49,47.59359,-54.27349
2020-12-29 02:34:01+00:00,155.0,3.58,153.0,3.91,12.49,47.59359,-54.27349
2020-12-29 02:44:01+00:00,159.0,3.57,155.0,4.25,12.49,47.59359,-54.27349
2020-12-29 02:54:01+00:00,167.0,3.08,179.0,3.52,12.49,47.59359,-54.27349
2020-12-29 03:04:01+00:00,173.0,3.32,173.0,3.95,12.49,47.59359,-54.27349
2020-12-29 03:14:01+00:00,176.0,3.29,188.0,4.12,12.49,47.59359,-54.27349
2020-12-29 03:24:01+00:00,155.0,3.37,156.0,4.07,12.49,47.59359,-54.27349
2020-12-29 03:34:01+00:00,154.0,3.56,153.0,3.87,12.49,47.59359,-54.27349
2020-12-29 03:44:01+00:00,147.0,3.61,148.0,3.93,12.49,47.59359,-54.27349
2020-12-29 03:54:01+00:00,142.0,2.57,143.0,2.95,12.49,47.59359,-54.27349
2020-12-29 04:04:01+00:00,151.0,3.48,148.0,3.83,12.49,47.59359,-54.27349
2020-12-29 04:14:01+00:00,147.0,3.41,151.0,3.93,12.41,47.59359,-54.27349
2020-12-29 04:24:01+00:00,149.0,4.28,155.0,4.92,12.41,47.59359,-54.27349
2020-12-29 04:34:01+00:00,153.0,3.65,154.0,3.95,12.41,47.59359,-54.27349
2020-12-29 04:44:01+00:00,162.0,3.41,159.0,3.83,12.41,47.59359,-54.27349
2020-12-29 04:54:01+00:00,169.0,4.06,163.0,4.94,12.41,47.59359,-54.27349
2020-12-29 05:04:01+00:00,162.0,3.81,166.0,5.26,12.41,47.59359,-54.27349
2020-12-29 05:14:01+00:00,169.0,3.43,180.0,4.76,12.41,47.59359,-54.27349
2020-12-29 05:24:01+00:00,151.0,3.09,152.0,3.6,12.41,47.59359,-54.27349
2020-12-29 05:34:01+00:00,156.0,3.62,156.0,4.03,12.41,47.59359,-54.27349
2020-12-29 05:44:01+00:00,170.0,3.59,180.0,4.15,12.41,47.59359,-54.27349
2020-12-29 05:54:01+00:00,157.0,4.24,156.0,4.75,12.41,47.59359,-54.27349
2020-12-29 06:04:01+00:00,165.0,4.81,167.0,6.41,12.41,47.59359,-54.27349
2020-12-29 06:14:01+00:00,164.0,6.1,159.0,6.75,12.49,47.59359,-54.27349
2020-12-29 06:24:01+00:00,173.0,6.56,182.0,7.19,12.49,47.59359,-54.27349
2020-12-29 06:34:01+00:00,171.0,5.49,175.0,6.17,12.49,47.59359,-54.27349
2020-12-29 06:44:01+00:00,177.0,6.98,178.0,8.02,12.49,47.59359,-54.27349
2020-12-29 06:54:01+00:00,163.0,6.14,168.0,6.91,12.49,47.59359,-54.27349
2020-12-29 07:04:01+00:00,177.0,7.18,176.0,7.95,12.49,47.59359,-54.27349
2020-12-29 07:14:01+00:00,183.0,6.46,179.0,7.59,12.41,47.59359,-54.27349
2020-12-29 07:24:01+00:00,183.0,6.06,183.0,6.82,12.41,47.59359,-54.27349
2020-12-29 07:34:01+00:00,167.0,6.42,170.0,7.87,12.41,47.59359,-54.27349
2020-12-29 07:44:01+00:00,171.0,6.82,166.0,8.18,12.41,47.59359,-54.27349
2020-12-29 07:54:01+00:00,172.0,5.97,170.0,6.63,12.41,47.59359,-54.27349
2020-12-29 08:04:01+00:00,172.0,6.45,173.0,7.59,12.41,47.59359,-54.27349
2020-12-29 08:14:01+00:00,172.0,6.52,171.0,7.17,12.41,47.59359,-54.27349
2020-12-29 08:24:01+00:00,158.0,6.64,160.0,7.45,12.41,47.59359,-54.27349
2020-12-29 08:34:01+00:00,160.0,6.54,167.0,7.25,12.41,47.59359,-54.27349
2020-12-29 08:44:01+00:00,164.0,5.91,159.0,6.91,12.41,47.59359,-54.27349
2020-12-29 08:54:01+00:00,157.0,6.94,156.0,7.54,12.41,47.59359,-54.27349
2020-12-29 09:04:01+00:00,158.0,6.37,161.0,6.95,12.41,47.59359,-54.27349
2020-12-29 09:14:01+00:00,171.0,6.04,174.0,6.72,12.41,47.59359,-54.27349
2020-12-29 09:24:01+00:00,166.0,6.07,170.0,6.89,12.41,47.59359,-54.27349
2020-12-29 09:34:01+00:00,180.0,5.35,179.0,5.92,12.41,47.59359,-54.27349
2020-12-29 09:44:01+00:00,172.0,6.09,169.0,6.85,12.41,47.59359,-54.27349
2020-12-29 09:54:01+00:00,178.0,5.71,180.0,6.4,12.41,47.59359,-54.27349
2020-12-29 10:04:01+00:00,162.0,6.22,164.0,7.0,12.41,47.59359,-54.27349
2020-12-29 10:14:01+00:00,166.0,4.95,165.0,5.36,12.41,47.59359,-54.27349
2020-12-29 10:24:01+00:00,171.0,4.97,176.0,5.39,12.41,47.59359,-54.27349
2020-12-29 10:34:01+00:00,156.0,4.58,155.0,5.15,12.41,47.59359,-54.27349
2020-12-29 10:44:01+00:00,167.0,5.14,164.0,5.71,12.41,47.59359,-54.27349
2020-12-29 10:54:01+00:00,171.0,5.76,168.0,6.36,12.41,47.59359,-54.27349
2020-12-29 11:04:01+00:00,163.0,5.68,164.0,6.16,12.41,47.59359,-54.27349
2020-12-29 11:14:01+00:00,170.0,5.67,168.0,6.38,12.41,47.59359,-54.27349
2020-12-29 11:24:01+00:00,153.0,6.09,156.0,6.93,12.41,47.59359,-54.27349
2020-12-29 11:34:01+00:00,171.0,3.82,173.0,4.52,12.41,47.59359,-54.27349
2020-12-29 11:44:01+00:00,177.0,5.02,176.0,5.83,12.41,47.59359,-54.27349
2020-12-29 11:54:01+00:00,169.0,4.12,178.0,5.46,12.41,47.59359,-54.27349
2020-12-29 12:04:01+00:00,186.0,3.48,197.0,3.84,12.41,47.59359,-54.27349
2020-12-29 12:14:01+00:00,182.0,4.1,186.0,5.26,12.41,47.59359,-54.27349
2020-12-29 12:24:01+00:00,178.0,4.43,179.0,5.08,12.41,47.59359,-54.27349
2020-12-29 12:34:01+00:00,166.0,5.48,168.0,6.82,12.41,47.59359,-54.27349
2020-12-29 12:44:01+00:00,186.0,4.32,196.0,6.28,12.41,47.59359,-54.27349
2020-12-29 12:54:01+00:00,159.0,5.7,158.0,6.43,12.41,47.59359,-54.27349
2020-12-29 13:04:01+00:00,168.0,5.2,170.0,5.8,12.41,47.59359,-54.27349
2020-12-29 13:14:01+00:00,172.0,5.49,171.0,6.84,12.57,47.59359,-54.27349
2020-12-29 13:24:01+00:00,159.0,3.89,165.0,5.03,12.57,47.59359,-54.27349
2020-12-29 13:34:01+00:00,159.0,4.5,176.0,5.54,12.57,47.59359,-54.27349
2020-12-29 13:44:01+00:00,155.0,4.24,155.0,5.1,12.57,47.59359,-54.27349
2020-12-29 13:54:01+00:00,164.0,3.43,162.0,3.77,12.57,47.59359,-54.27349
2020-12-29 14:04:01+00:00,169.0,4.74,161.0,5.78,12.57,47.59359,-54.27349
2020-12-29 14:14:01+00:00,176.0,5.54,168.0,6.42,12.97,47.59359,-54.27349
2020-12-29 14:24:01+00:00,171.0,5.69,173.0,6.27,12.97,47.59359,-54.27349
2020-12-29 14:34:01+00:00,165.0,7.46,166.0,8.14,12.97,47.59359,-54.27349
2020-12-29 14:44:01+00:00,168.0,6.85,168.0,7.7,12.97,47.59359,-54.27349
2020-12-29 14:54:01+00:00,169.0,6.02,172.0,6.81,12.97,47.59359,-54.27349
2020-12-29 15:04:01+00:00,166.0,6.07,174.0,7.47,12.97,47.59359,-54.27349
2020-12-29 15:14:01+00:00,171.0,7.09,165.0,8.7,13.37,47.59359,-54.27349
2020-12-29 15:24:01+00:00,167.0,6.86,168.0,7.85,13.37,47.59359,-54.27349
2020-12-29 15:34:01+00:00,160.0,5.7,162.0,6.42,13.37,47.59359,-54.27349
2020-12-29 15:44:01+00:00,192.0,4.69,190.0,5.44,13.37,47.59359,-54.27349
2020-12-29 15:54:01+00:00,164.0,4.81,155.0,5.49,13.37,47.59359,-54.27349
2020-12-29 16:04:01+00:00,171.0,4.39,171.0,4.79,13.37,47.59359,-54.27349
2020-12-29 16:14:01+00:00,189.0,4.82,190.0,5.55,13.37,47.59359,-54.27349
2020-12-29 16:24:01+00:00,190.0,4.52,185.0,5.53,13.37,47.59359,-54.27349
2020-12-29 16:34:01+00:00,182.0,6.19,183.0,7.19,13.37,47.59359,-54.27349
2020-12-29 16:44:01+00:00,176.0,5.18,168.0,7.33,13.37,47.59359,-54.27349
2020-12-29 16:54:01+00:00,169.0,5.02,170.0,5.62,13.37,47.59359,-54.27349
2020-12-29 17:04:01+00:00,179.0,4.42,184.0,4.71,13.37,47.59359,-54.27349
2020-12-29 17:14:01+00:00,168.0,4.58,166.0,5.18,13.21,47.59359,-54.27349
2020-12-29 17:24:01+00:00,155.0,4.13,153.0,4.58,13.21,47.59359,-54.27349
2020-12-29 17:34:01+00:00,167.0,4.98,170.0,5.88,13.21,47.59359,-54.27349
2020-12-29 17:44:01+00:00,137.0,3.85,133.0,4.61,13.21,47.59359,-54.27349
2020-12-29 17:54:01+00:00,149.0,4.2,151.0,5.01,13.21,47.59359,-54.27349
2020-12-29 18:04:01+00:00,171.0,1.39,160.0,1.66,13.21,47.59359,-54.27349
2020-12-29 18:14:01+00:00,202.0,2.62,200.0,3.22,12.81,47.59359,-54.27349
2020-12-29 18:24:01+00:00,214.0,2.99,211.0,3.45,12.81,47.59359,-54.27349
2020-12-29 18:34:01+00:00,199.0,2.64,194.0,3.22,12.81,47.59359,-54.27349
2020-12-29 18:44:01+00:00,178.0,2.15,179.0,2.6,12.81,47.59359,-54.27349
2020-12-29 18:54:01+00:00,182.0,2.2,182.0,2.53,12.81,47.59359,-54.27349
2020-12-29 19:04:01+00:00,188.0,2.0,189.0,2.24,12.81,47.59359,-54.27349
2020-12-29 19:14:01+00:00,135.0,3.04,143.0,3.55,12.65,47.59359,-54.27349
2020-12-29 19:24:01+00:00,147.0,4.01,147.0,4.45,12.65,47.59359,-54.27349
2020-12-29 19:34:01+00:00,159.0,3.71,145.0,4.44,12.65,47.59359,-54.27349
2020-12-29 19:44:01+00:00,178.0,4.43,178.0,4.96,12.65,47.59359,-54.27349
2020-12-29 19:54:01+00:00,175.0,4.61,177.0,5.18,12.65,47.59359,-54.27349
2020-12-29 20:04:01+00:00,149.0,4.52,147.0,5.03,12.65,47.59359,-54.27349
2020-12-29 20:14:01+00:00,158.0,3.87,150.0,4.61,12.57,47.59359,-54.27349
2020-12-29 20:24:01+00:00,167.0,4.8,166.0,6.04,12.57,47.59359,-54.27349
2020-12-29 20:34:01+00:00,162.0,5.09,162.0,5.47,12.57,47.59359,-54.27349
2020-12-29 20:44:01+00:00,159.0,4.1,162.0,4.93,12.57,47.59359,-54.27349
2020-12-29 20:54:01+00:00,90.0,0.98,107.0,2.19,12.57,47.59359,-54.27349
2020-12-29 21:04:01+00:00,94.0,2.08,89.0,2.84,12.57,47.59359,-54.27349
2020-12-29 21:14:01+00:00,96.0,2.54,95.0,3.35,12.57,47.59359,-54.27349
2020-12-29 21:24:01+00:00,82.0,2.18,88.0,3.17,12.57,47.59359,-54.27349
2020-12-29 21:34:01+00:00,67.0,4.99,67.0,5.47,12.57,47.59359,-54.27349
2020-12-29 21:44:01+00:00,123.0,5.47,129.0,6.96,12.57,47.59359,-54.27349
2020-12-29 21:54:01+00:00,149.0,5.61,149.0,6.22,12.57,47.59359,-54.27349
2020-12-29 22:04:01+00:00,132.0,3.51,126.0,4.57,12.57,47.59359,-54.27349
2020-12-29 22:14:01+00:00,120.0,5.12,120.0,6.26,12.49,47.59359,-54.27349
2020-12-29 22:24:01+00:00,118.0,3.2,120.0,3.73,12.49,47.59359,-54.27349
2020-12-29 22:34:01+00:00,111.0,2.33,110.0,3.5,12.49,47.59359,-54.27349
2020-12-29 22:44:01+00:00,117.0,3.32,113.0,3.88,12.49,47.59359,-54.27349
2020-12-29 22:54:01+00:00,99.0,2.21,64.0,4.11,12.49,47.59359,-54.27349
2020-12-29 23:04:01+00:00,79.0,1.84,83.0,2.79,12.49,47.59359,-54.27349
2020-12-29 23:14:01+00:00,100.0,3.2,112.0,4.25,12.49,47.59359,-54.27349
2020-12-29 23:24:01+00:00,76.0,2.01,68.0,3.05,12.49,47.59359,-54.27349
2020-12-29 23:34:01+00:00,67.0,4.2,70.0,5.08,12.49,47.59359,-54.27349
2020-12-29 23:44:01+00:00,63.0,2.28,59.0,2.99,12.49,47.59359,-54.27349
2020-12-29 23:54:01+00:00,78.0,2.88,75.0,3.69,12.49,47.59359,-54.27349
